Volver al catálogo

COSMOS 2251 DEB

ActivoLEO
NORAD 34553·DEBRIS·🇷🇺 Russia

Lanzado Jun 16, 1993 desde Plesetsk Cosmodrome

Loading…

Próximos Pases (próximas 24 horas)

TLE

ActualizadoSource: Space-Track

Época: Sep 14, 2026, 11:49 UTC

1 34553U 93036UP  26257.49299326  .00003195  00000-0  66756-3 0  9998
2 34553  74.0264  26.0439 0018792  35.8455  83.1996 14.60169956921180

Sigue COSMOS 2251 DEB en tiempo real con AllMySat

Download on the App Store